EW7398 Weather Reports


Display with metric or nautical units.
time (UTC)temp
F
wind
direction
speed
MPH
gust
MPH
rain 1hr
in
rain 24hr
in
rain mn
in
humidity
%
barometer
mb
20260904181528 82 181 7.0 19.0 0.00 0.00 0.00 46 1008.6
20260904180101 81 360 11.0 22.0 0.00 0.00 0.00 49 1008.6
20260904174516 80 136 13.0 23.0 0.00 0.00 0.00 51 1008.6
20260904173104 79 360 13.0 24.0 0.00 0.00 0.00 53 1008.7
20260904171541 78 203 10.0 19.0 0.00 0.00 0.00 56 1008.8
20260904170110 77 182 11.0 20.0 0.00 0.00 0.00 57 1008.8
20260904164530 76 167 11.0 20.0 0.00 0.00 0.00 59 1008.7
20260904163009 75 157 11.0 23.0 0.00 0.00 0.00 61 1008.6
20260904161547 74 148 11.0 19.0 0.00 0.00 0.00 62 1008.5
20260904160002 73 159 10.0 18.0 0.00 0.00 0.00 65 1008.6
20260904154530 72 360 12.0 21.0 0.00 0.00 0.00 66 1008.7
20260904153017 71 360 10.0 19.0 0.00 0.00 0.00 68 1008.7
20260904151546 71 360 11.0 19.0 0.00 0.00 0.00 68 1008.6
20260904150002 70 360 10.0 18.0 0.00 0.00 0.00 68 1008.5
20260904144535 69 360 9.0 15.0 0.00 0.00 0.00 69 1008.5
20260904143016 67 360 6.0 11.0 0.00 0.00 0.00 74 1008.5
20260904141617 65 360 4.0 9.0 0.00 0.00 0.00 78 1008.3
20260904140002 63 360 4.0 8.0 0.00 0.00 0.00 81 1008.3
20260904134545 61 360 4.0 8.0 0.00 0.00 0.00 81 1008.1
20260904133018 61 15 3.0 6.0 0.00 0.00 0.00 81 1008.1
20260904131610 61 182 3.0 5.0 0.00 0.00 0.00 82 1007.9
20260904130010 60 173 2.0 5.0 0.00 0.00 0.00 82 1007.6
20260904124548 61 173 1.0 5.0 0.00 0.00 0.00 82 1007.5
20260904123042 61 173 1.0 4.0 0.00 0.00 0.00 82 1007.3
20260904121528 61 173 1.0 4.0 0.00 0.00 0.00 81 1007.1
20260904120058 61 17 0.0 2.0 0.00 0.00 0.00 82 1007.2
20260904114523 62 15 1.0 4.0 0.00 0.00 0.00 81 1007.1
20260904113100 62 15 0.0 2.0 0.00 0.00 0.00 81 1007.1
20260904111555 62 15 2.0 5.0 0.00 0.00 0.00 82 1007.1
20260904110009 62 14 2.0 6.0 0.00 0.00 0.00 82 1006.8
20260904104555 62 16 1.0 5.0 0.00 0.00 0.00 81 1006.8
20260904103044 62 13 2.0 4.0 0.00 0.00 0.00 80 1006.6
20260904101514 63 13 2.0 6.0 0.00 0.00 0.00 79 1006.5
20260904094522 63 145 3.0 7.0 0.00 0.00 0.00 77 1006.3
20260904093058 64 126 3.0 7.0 0.00 0.00 0.00 76 1006.3
20260904091548 64 140 3.0 5.0 0.00 0.00 0.00 76 1006.4
20260904090008 64 139 3.0 5.0 0.00 0.00 0.00 75 1006.5
20260904084549 65 140 1.0 3.0 0.00 0.00 0.00 74 1006.5
20260904083028 65 138 1.0 4.0 0.00 0.00 0.00 73 1006.6
20260904081515 65 142 3.0 5.0 0.00 0.00 0.00 72 1006.7
20260904080107 66 116 3.0 6.0 0.00 0.00 0.00 70 1006.8
20260904074530 67 115 3.0 6.0 0.00 0.00 0.00 68 1006.9
20260904073103 67 116 2.0 3.0 0.00 0.00 0.00 66 1006.8
20260904073001 67 115 2.0 3.0 0.00 0.00 0.00 66 1006.7
20260904071552 68 111 0.0 3.0 0.00 0.00 0.00 65 1006.8
20260904070011 69 121 3.0 6.0 0.00 0.00 0.00 64 1006.8
20260904064614 69 175 0.0 6.0 0.00 0.00 0.00 65 1006.8
20260904064501 69 175 0.0 6.0 0.00 0.00 0.00 65 1006.8
20260904063052 69 164 2.0 6.0 0.00 0.00 0.00 64 1006.8
20260904061538 69 162 3.0 5.0 0.00 0.00 0.00 64 1006.8
20260904060114 69 159 3.0 6.0 0.00 0.00 0.00 63 1006.7
20260904054538 70 153 4.0 8.0 0.00 0.00 0.00 62 1006.7
20260904053028 70 153 3.0 7.0 0.00 0.00 0.00 61 1006.7
20260904051600 70 144 3.0 7.0 0.00 0.00 0.00 60 1006.7
20260904051504 70 144 3.0 7.0 0.00 0.00 0.00 60 1006.7
20260904050103 70 190 4.0 7.0 0.00 0.00 0.00 59 1006.8
20260904044539 69 153 3.0 8.0 0.00 0.00 0.00 61 1006.9
20260904043011 70 135 2.0 5.0 0.00 0.00 0.00 60 1006.8
20260904041603 70 130 3.0 7.0 0.00 0.00 0.00 58 1006.6
20260904040048 71 133 3.0 5.0 0.00 0.00 0.00 57 1006.4
20260904034507 72 13 3.0 5.0 0.00 0.00 0.00 55 1006.2
20260904033041 73 13 3.0 8.0 0.00 0.00 0.00 54 1006.2
20260904031545 74 13 3.0 6.0 0.00 0.00 0.00 52 1006.1
20260904030117 75 13 3.0 5.0 0.00 0.00 0.00 50 1006.0
20260904024534 76 15 3.0 8.0 0.00 0.00 0.00 48 1005.9
20260904023020 76 18 3.0 9.0 0.00 0.00 0.00 46 1005.8
20260904021558 77 24 3.0 9.0 0.00 0.00 0.00 45 1005.6
20260904020050 78 16 3.0 10.0 0.00 0.00 0.00 43 1005.6
20260904014621 78 15 6.0 14.0 0.00 0.00 0.00 42 1005.6
20260904014507 78 15 6.0 14.0 0.00 0.00 0.00 42 1005.6
20260904013056 79 27 7.0 15.0 0.00 0.00 0.00 41 1005.6
20260904011533 79 13 6.0 12.0 0.00 0.00 0.00 41 1005.6
20260904010004 80 223 5.0 13.0 0.00 0.00 0.00 39 1005.6
20260904004545 81 252 9.0 18.0 0.00 0.00 0.00 36 1005.7
20260904003030 81 228 7.0 18.0 0.00 0.00 0.00 37 1005.7
20260904001512 82 244 8.0 15.0 0.00 0.00 0.00 36 1005.7
20260904000105 82 200 9.0 16.0 0.00 0.00 0.00 34 1005.8
20260903234519 82 196 10.0 16.0 0.00 0.00 0.00 35 1005.7
20260903233008 82 194 7.0 15.0 0.00 0.00 0.00 33 1005.7
20260903231602 83 198 9.0 18.0 0.00 0.00 0.00 35 1005.9
20260903230005 84 231 9.0 17.0 0.00 0.00 0.00 33 1006.1
20260903224545 84 200 9.0 20.0 0.00 0.00 0.00 33 1006.2
20260903223023 85 200 7.0 17.0 0.00 0.00 0.00 33 1006.2
20260903221504 86 191 11.0 21.0 0.00 0.00 0.00 32 1006.5
20260903214505 86 220 9.0 29.0 0.00 0.00 0.00 32 1006.8
20260903213043 86 188 10.0 17.0 0.00 0.00 0.00 32 1007.0
20260903211532 87 236 12.0 22.0 0.00 0.00 0.00 31 1007.1
20260903210109 86 210 10.0 19.0 0.00 0.00 0.00 30 1007.2
20260903204533 86 209 10.0 22.0 0.00 0.00 0.00 31 1007.3
20260903203022 85 192 12.0 23.0 0.00 0.00 0.00 32 1007.4
20260903201503 86 194 9.0 21.0 0.00 0.00 0.00 30 1007.3
20260903200047 86 193 10.0 20.0 0.00 0.00 0.00 31 1007.4
20260903194555 86 202 7.0 20.0 0.00 0.00 0.00 32 1007.8
20260903193038 86 220 10.0 21.0 0.00 0.00 0.00 31 1007.9
20260903191522 85 199 11.0 21.0 0.00 0.00 0.00 32 1008.1
20260903184519 84 186 8.0 20.0 0.00 0.00 0.00 33 1008.4
20260903183115 83 219 9.0 19.0 0.00 0.00 0.00 34 1008.8